Pasco, WA
on Monday, November 26, 2012

Monday
Previous Day Next Day
Daily Summary
 ActualAverageRecord
Temperature
Mean Temperature °F / °C 38°F / 3°C  
Max Temperature 36°F / 2°C 45°F / 7°C 64°F / 17°C (1998)
Min Temperature 22°F / -6°C 30°F / -1°C 2°F / -16°C (1993)
Degree Days
Heating Degree Days 36 27  
Month to date heating degree days 535 597  
Since 1 July heating degree days 979 1115  
Cooling Degree Days 0 0  
Month to date cooling degree days 0 0  
Year to date cooling degree days 788 710  
Moisture
Dew Point 28°F / -2°C   
Average Humidity 91    
Maximum Humidity 100    
Minimum Humidity 82    
Precipitation
Precipitation 0.00 in / 0.00 cm in / cm 0.51 in / 1.30 cm (1955)
Month to date precipitation 1.03  
Year to date precipitation 8.49  
Snow
Snow 0.00 in / 0.00 cm in / cm in / cm ()
Snow Depth 0.00 in / 0.00 cm   
Wind
Wind Speed 2 mph / 3 km/h   
Max Wind Speed 9 mph / 14 km/h   
Max Gust Speed 10 mph / 16 km/h   
Visibility 10 miles / 15 kilometers   
Events     

Key: T is trace of precipitation, MM is missing value
Source: NWS Daily Summary
Time(PST)TemperatureDew PointHumidity Pressure Visibility Wind DirectionWind SpeedGust SpeedPrecipitationEvents Conditions
12:53 AM 26.1°F / -3.3°C 24.1°F / -4.4°C 92% 30.37 in / 1028.3 hPa 10.0 miles / 16.1 kilometers Calm Calm - N/A   Clear
1:53 AM 25.0°F / -3.9°C 23.0°F / -5.0°C 92% 30.38 in / 1028.5 hPa 10.0 miles / 16.1 kilometers NNW 3.5 mph / 5.6 km/h - N/A   Clear
2:53 AM 25.0°F / -3.9°C 23.0°F / -5.0°C 92% 30.37 in / 1028.4 hPa 10.0 miles / 16.1 kilometers Calm Calm - N/A   Clear
3:53 AM 27.0°F / -2.8°C 24.1°F / -4.4°C 89% 30.35 in / 1027.5 hPa 10.0 miles / 16.1 kilometers Calm Calm - N/A   Clear
4:53 AM 25.0°F / -3.9°C 23.0°F / -5.0°C 92% 30.33 in / 1027.0 hPa 10.0 miles / 16.1 kilometers East 3.5 mph / 5.6 km/h - N/A   Clear
5:53 AM 24.1°F / -4.4°C 21.9°F / -5.6°C 91% 30.34 in / 1027.3 hPa 10.0 miles / 16.1 kilometers Calm Calm - N/A   Clear
6:39 AM 24.8°F / -4.0°C 24.8°F / -4.0°C 100% 30.32 in / 1026.6 hPa 10.0 miles / 16.1 kilometers Calm Calm - N/A   Overcast
6:53 AM 27.0°F / -2.8°C 25.0°F / -3.9°C 92% 30.33 in / 1027.1 hPa 10.0 miles / 16.1 kilometers East 3.5 mph / 5.6 km/h - N/A   Overcast
7:53 AM 28.0°F / -2.2°C 27.0°F / -2.8°C 96% 30.33 in / 1027.1 hPa 10.0 miles / 16.1 kilometers Calm Calm - N/A   Overcast
8:53 AM 30.0°F / -1.1°C 28.0°F / -2.2°C 92% 30.34 in / 1027.4 hPa 10.0 miles / 16.1 kilometers Calm Calm - N/A   Overcast
9:53 AM 32.0°F / 0.0°C 28.9°F / -1.7°C 88% 30.34 in / 1027.4 hPa 10.0 miles / 16.1 kilometers North 3.5 mph / 5.6 km/h - N/A   Overcast
10:53 AM 33.1°F / 0.6°C 30.0°F / -1.1°C 89% 30.33 in / 1027.0 hPa 10.0 miles / 16.1 kilometers Calm Calm - N/A   Overcast
11:53 AM 33.1°F / 0.6°C 28.9°F / -1.7°C 85% 30.31 in / 1026.4 hPa 10.0 miles / 16.1 kilometers Calm Calm - N/A   Overcast
12:53 PM 35.1°F / 1.7°C 30.0°F / -1.1°C 82% 30.29 in / 1025.7 hPa 10.0 miles / 16.1 kilometers Calm Calm - N/A   Overcast
1:53 PM 35.1°F / 1.7°C 30.9°F / -0.6°C 85% 30.27 in / 1025.1 hPa 10.0 miles / 16.1 kilometers Calm Calm - N/A   Overcast
2:53 PM 36.0°F / 2.2°C 30.9°F / -0.6°C 82% 30.27 in / 1024.8 hPa 10.0 miles / 16.1 kilometers ESE 3.5 mph / 5.6 km/h - N/A   Overcast
3:53 PM 35.1°F / 1.7°C 30.9°F / -0.6°C 85% 30.27 in / 1024.9 hPa 10.0 miles / 16.1 kilometers SE 5.8 mph / 9.3 km/h - N/A   Overcast
4:53 PM 33.1°F / 0.6°C 30.0°F / -1.1°C 89% 30.27 in / 1024.9 hPa 10.0 miles / 16.1 kilometers ESE 5.8 mph / 9.3 km/h - N/A   Overcast
5:45 PM 32.0°F / 0.0°C 28.4°F / -2.0°C 87% 30.26 in / 1024.6 hPa 10.0 miles / 16.1 kilometers East 5.8 mph / 9.3 km/h - N/A   Mostly Cloudy
5:53 PM 32.0°F / 0.0°C 28.9°F / -1.7°C 88% 30.28 in / 1025.2 hPa 10.0 miles / 16.1 kilometers East 4.6 mph / 7.4 km/h - N/A   Mostly Cloudy
6:00 PM 30.2°F / -1.0°C 28.4°F / -2.0°C 93% 30.26 in / 1024.6 hPa 10.0 miles / 16.1 kilometers East 3.5 mph / 5.6 km/h - N/A   Mostly Cloudy
6:53 PM 30.0°F / -1.1°C 28.0°F / -2.2°C 92% 30.28 in / 1025.2 hPa 10.0 miles / 16.1 kilometers East 4.6 mph / 7.4 km/h - N/A   Mostly Cloudy
7:53 PM 28.9°F / -1.7°C 28.0°F / -2.2°C 96% 30.29 in / 1025.6 hPa 5.0 miles / 8.0 kilometers Calm Calm - N/A   Mostly Cloudy
8:53 PM 30.9°F / -0.6°C 28.9°F / -1.7°C 92% 30.29 in / 1025.7 hPa 9.0 miles / 14.5 kilometers East 3.5 mph / 5.6 km/h - N/A   Overcast
9:53 PM 30.9°F / -0.6°C 30.0°F / -1.1°C 96% 30.30 in / 1026.0 hPa 10.0 miles / 16.1 kilometers SE 3.5 mph / 5.6 km/h - N/A   Overcast
10:53 PM 32.0°F / 0.0°C 30.0°F / -1.1°C 92% 30.30 in / 1026.1 hPa 8.0 miles / 12.9 kilometers ESE 3.5 mph / 5.6 km/h - N/A   Overcast
11:53 PM 32.0°F / 0.0°C 30.0°F / -1.1°C 92% 30.30 in / 1025.9 hPa 8.0 miles / 12.9 kilometers East 5.8 mph / 9.3 km/h - N/A   Overcast
Moon Phase
Nov. 26 Nov. 28 Dec. 06 Dec. 13 Dec. 20
Sunrise:07:13 AM (PST) Moon Rise:03:12 PM (PST)11/26
Sunset:04:14 PM (PST) Moon Set:05:24 AM (PST)11/26

Copyright © 2014 The Weather Underground, Inc.